This is the latest recevied weather packets stored in our database for station/object SP2ARQ-13. If no packets are shown the sender has not sent any weather packets the latest 10 day(s).
| Time | Temp. | Humidity | Pressure | Rain* | Wind** | Luminosity | Snow |
|---|---|---|---|---|---|---|---|
| 1777756362 | 16.67° C | 48% | 1017.6 hPa | - | - | - | - |
| 1777755462 | 16.67° C | 48% | 1017.6 hPa | - | - | - | - |
| 1777754562 | 16.67° C | 47% | 1017.5 hPa | - | - | - | - |
| 1777753662 | 17.22° C | 48% | 1017.7 hPa | - | - | - | - |
| 1777752762 | 17.22° C | 48% | 1017.8 hPa | - | - | - | - |
| 1777751861 | 17.78° C | 48% | 1017.9 hPa | - | - | - | - |
| 1777750961 | 18.89° C | 46% | 1017.9 hPa | - | - | - | - |
| 1777750061 | 19.44° C | 43% | 1017.9 hPa | - | - | - | - |
| 1777749162 | 20° C | 43% | 1017.8 hPa | - | - | - | - |
| 1777748260 | 20.56° C | 42% | 1017.9 hPa | - | - | - | - |
| 1777747360 | 21.11° C | 41% | 1017.8 hPa | - | - | - | - |
| 1777746460 | 21.67° C | 40% | 1017.7 hPa | - | - | - | - |
| 1777745560 | 21.67° C | 40% | 1017.6 hPa | - | - | - | - |
| 1777744660 | 22.22° C | 39% | 1017.6 hPa | - | - | - | - |
| 1777743760 | 22.78° C | 39% | 1017.7 hPa | - | - | - | - |
| 1777742859 | 23.33° C | 38% | 1017.7 hPa | - | - | - | - |
| 1777741959 | 23.89° C | 37% | 1017.7 hPa | - | - | - | - |
| 1777741059 | 23.89° C | 36% | 1017.9 hPa | - | - | - | - |
| 1777740159 | 24.44° C | 35% | 1018 hPa | - | - | - | - |
| 1777739259 | 25° C | 34% | 1018.1 hPa | - | - | - | - |
| 1777738359 | 25° C | 34% | 1018.3 hPa | - | - | - | - |
| 1777737458 | 26.11° C | 34% | 1018.4 hPa | - | - | - | - |
| 1777736558 | 26.67° C | 32% | 1018.7 hPa | - | - | - | - |
| 1777735658 | 28.89° C | 30% | 1018.7 hPa | - | - | - | - |
| 1777734758 | 28.33° C | 31% | 1019 hPa | - | - | - | - |
* Rain since midnight (hover to see other rain measurements)
** Current wind speed in m/s (hover to see current wind gust speed)